Regional Weather Roundup
Issued by NWS

Home | Current Version | Previous Version | Graphics & Text | Print | Product List | Glossary On
Versions: 1 2 3 4 5 6 7 8 9 10 11 12 13 14 15 16 17 18 19 20 21 22 23 24 25 26 27 28 29 30 31 32 33 34 35 36 37 38 39 40 41 42 43 44 45 46 47 48 49 50
770
ASUS45 KBOI 231210
RWRID

IDAHO REGIONAL WEATHER ROUNDUP
NATIONAL WEATHER SERVICE BOISE ID
600 AM MDT SAT JUL 23 2016

NOTE: "FAIR" INDICATES FEW OR NO CLOUDS BELOW 12000 FEET
WITH NO SIGNIFICANT WEATHER AND/OR OBSTRUCTIONS TO VISIBILITY

IDZ012-014-231300-
SOUTHWEST IDAHO


CITY           SKY/WX    TMP DP  RH WIND       PRES   REMARKS
BOISE          CLEAR     57  41  55 CALM      30.14R
CALDWELL       NOT AVBL
MOUNTAIN HOME  CLEAR     62  39  43 NW15      30.13R
$$

IDZ016-017-231300-
SOUTHCENTRAL IDAHO


CITY           SKY/WX    TMP DP  RH WIND       PRES   REMARKS
BURLEY         CLEAR     60  42  51 W13G22    30.15R
JEROME         CLEAR     58  42  55 SW10      30.17R
TWIN FALLS     CLEAR     60  36  40 SW15G21   30.17R
$$

IDZ019>023-231300-
SOUTHEAST IDAHO


CITY           SKY/WX    TMP DP  RH WIND       PRES   REMARKS
IDAHO FALLS    CLEAR     53  38  56 S5        30.16R
POCATELLO      CLEAR     53  36  52 W3        30.18R
REXBURG        CLEAR     49  38  65 NE3       30.16R
$$

IDZ006-010-011-018-031-032-231300-
CENTRAL IDAHO MOUNTAINS


CITY           SKY/WX    TMP DP  RH WIND       PRES   REMARKS
MCCALL         CLEAR     54  38  54 N8        30.21S
HAILEY         CLEAR     48  32  53 NW9       30.21R
STANLEY          N/A     40  30  67 S5        30.28S
SALMON         CLEAR     54  41  62 SW6       30.17S
CHALLIS        CLEAR     52  39  61 VRB3      30.19R
$$

IDZ002-004-006-007-026-231300-
NORTHERN IDAHO


CITY           SKY/WX    TMP DP  RH WIND       PRES   REMARKS
LEWISTON       CLEAR     58  47  66 SE6       30.14S
LOWELL           N/A     55  51  86 NW3       30.18S
COEUR D`ALENE  MOCLDY    57  52  82 SE12      30.12R
MULLAN PASS    CLEAR     47  41  80 SW6       30.23S
$$




USA.gov is the U.S. government's official web portal to all federal, state and local government web resources and services.